Terminal Aerodrome Forecast
Issued by NWS Pendleton, OR

Home | Current Version | Previous Version | Text Only | Print | Product List | Glossary On
Versions: 1 2 3 4 5 6 7 8 9 10 11 12 13
000
FTUS46 KPDT 051100
TAFPDT
TAF
KPDT 051140Z 0512/0612 12007KT P6SM SCT200
     FM051800 31006KT P6SM BKN200
     FM060300 15007KT P6SM SCT200=

USA.gov is the U.S. government's official web portal to all federal, state and local government web resources and services.